Location: Narrabri
(30.3170°S, 149.7830°E)
Time: 09:21:16
(UTC+10:00)

N. Korean satellite - Visible Passes

Search period start: 18 August 2017 00:00
Search period end: 28 August 2017 00:00
Orbit: 462 x 516 km, 97.2° (Epoch: 17 August)

Date Brightness Start Highest point End Pass type
(mag) Time Alt. Az. Time Alt. Az. Time Alt. Az.
18 Aug 7.6 06:01:31 10° NNE 06:05:07 51° ESE 06:08:43 10° S visible
18 Aug 7.5 19:08:06 10° S 19:11:29 47° WSW 19:14:50 10° NNW visible
19 Aug 9.2 05:39:09 10° NE 05:42:10 24° ESE 05:45:11 10° SSE visible
19 Aug 6.3 18:44:58 10° SSE 18:48:28 72° E 18:51:56 10° N visible
20 Aug 9.9 05:17:47 10° E 05:19:18 12° ESE 05:20:48 10° SE visible
20 Aug 7.3 18:22:14 10° SE 18:25:23 30° E 18:28:30 10° NNE visible
20 Aug 10.0 19:58:21 10° WSW 19:58:33 10° WSW 19:58:45 10° WSW visible
21 Aug 8.2 18:00:13 10° ESE 18:02:14 15° E 18:04:14 10° NE visible
21 Aug 9.1 19:33:00 10° SSW 19:35:41 21° WSW 19:38:21 10° WNW visible
22 Aug 7.6 19:09:22 10° S 19:12:44 44° WSW 19:16:05 10° NNW visible
23 Aug 9.1 05:40:24 10° NE 05:43:26 25° ESE 05:46:28 10° SSE visible
23 Aug 6.3 18:46:11 10° SSE 18:49:42 77° E 18:53:13 10° N visible
24 Aug 9.9 05:18:56 10° E 05:20:32 13° ESE 05:22:09 10° SE visible
24 Aug 7.2 18:23:25 10° SSE 18:26:37 32° E 18:29:48 10° NNE visible
25 Aug 9.2 19:34:16 10° SSW 19:36:54 20° WSW 19:39:31 10° WNW visible
26 Aug 7.8 19:10:35 10° S 19:13:56 42° WSW 19:17:17 10° NNW visible
27 Aug 9.0 05:41:37 10° NE 05:44:40 26° ESE 05:47:42 10° SSE visible
27 Aug 6.4 18:47:22 10° SSE 18:50:55 81° ENE 18:54:26 10° N visible
